Notices

What's New in latest Release from April 7th, 2021:

- Updated Glossary, including Speed of Maximum Gust, and Total Hourly Precipitation

- Updated national and regional climate services offices contacts and prices information

- Addition of station inventory lists for 1981-2010, 1971-2000, and 1961-1990 Normals.

If you haven't already, please take our survey and provide feedback about our website: https://eccc.sondage-survey.ca/f/LanguageSelection.aspx?s=442ca660-fcf1-47c0-95a9-59707d6fd709

Hourly Data Report for December 24, 2003

TORONTO CITY
ONTARIO

43°40'00.000" N
79°24'00.000" W
112.50 m
6158355
71508
XTO

Download Data

Hourly Data (December 2003)
Hourly Data Report for December 24, 2003
TIME
LST
Temp Definition
°C
Dew Point Definition
°C
Rel Hum Definition
%
Precip. Amount Definition
mm

Wind Dir Definition
10's deg

Wind Spd Definition
km/h
Visibility Definition
km
Stn Press Definition
kPa
Hmdx Definition


Wind Chill Definition


Weather Definition


00:00 7.4 7.1 98   LegendMM LegendMM LegendMM 99.27     LegendNANA
01:00 7.0 6.7 98   LegendMM LegendMM LegendMM 99.25     LegendNANA
02:00 6.2 5.9 98   LegendMM LegendMM LegendMM 99.30     LegendNANA
03:00 4.7 4.3 97   LegendMM LegendMM LegendMM 99.36     LegendNANA
04:00 3.6 2.9 95   LegendMM LegendMM LegendMM 99.37     LegendNANA
05:00 3.6 2.6 93   LegendMM LegendMM LegendMM 99.39     LegendNANA
06:00 3.4 2.3 92   LegendMM LegendMM LegendMM 99.41     LegendNANA
07:00 3.8 2.6 92   LegendMM LegendMM LegendMM 99.47     LegendNANA
08:00 3.9 2.3 89   LegendMM LegendMM LegendMM 99.53     LegendNANA
09:00 4.0 2.0 87   LegendMM LegendMM LegendMM 99.54     LegendNANA
10:00 4.2 2.1 86   LegendMM LegendMM LegendMM 99.50     LegendNANA
11:00 4.1 2.3 88   LegendMM LegendMM LegendMM 99.53     LegendNANA
12:00 4.3 2.0 85   LegendMM LegendMM LegendMM 99.45     LegendNANA
13:00 4.8 1.9 81   LegendMM LegendMM LegendMM 99.35     LegendNANA
14:00 4.3 1.3 81   LegendMM LegendMM LegendMM 99.37     LegendNANA
15:00 4.0 0.7 79   LegendMM LegendMM LegendMM 99.40     LegendNANA
16:00 4.0 0.8 80   LegendMM LegendMM LegendMM 99.41     LegendNANA
17:00 4.0 0.1 76   LegendMM LegendMM LegendMM 99.46     LegendNANA
18:00 4.0 0.4 77   LegendMM LegendMM LegendMM 99.46     LegendNANA
19:00 3.7 0.0 77   LegendMM LegendMM LegendMM 99.50     LegendNANA
20:00 3.7 -0.1 76   LegendMM LegendMM LegendMM 99.54     LegendNANA
21:00 3.4 0.2 80   LegendMM LegendMM LegendMM 99.54     LegendNANA
22:00 3.1 -0.1 79   LegendMM LegendMM LegendMM 99.53     LegendNANA
23:00 2.9 -1.1 75   LegendMM LegendMM LegendMM 99.56     LegendNANA

Notes on Data Quality.

Legend

  • E = Estimated
  • M = Missing
  • NA = Not Available*
  • [empty] = Indicates an unobserved value
Date modified: